Location: Waco, TX
(31.5480°N, 97.1670°W)
Time: 03:39:04
(UTC-05:00)

ISS - Pass Details

Date: 26 May 2017
Orbit: 401 x 408 km, 51.6° (Epoch: 23 June)

Event Time Altitude Azimuth Distance (km) Brightness Sun altitude
Rises 04:09:43 0° 327° (NNW) 2,326 0.2 -24.2°
Reaches altitude 10° 04:12:04 10° 341° (NNW) 1,462 -0.7 -23.9°
Maximum altitude 04:14:48 24° 38° (NE) 883 -1.4 -23.5°
Drops below altitude 10° 04:17:32 10° 95° (E) 1,452 -0.6 -23.1°
Sets 04:19:51 0° 110° (ESE) 2,306 0.3 -22.8°
